,,,PA_Meas_PMT16A,,PR_Meas_QMR101_102,,RH_Meas_QMH101,,SR_Meas_QMS101,,TA_Meas_QMH101,,GenWind,,GenWind,
date,time,status,PA,status,PR,status,RH,status,SR,status,TA,status,DirAvg,status,SpdAvg,
2011-09-10, 00:00:04,VALID,1006.43,VALID,0,INVALID,163.769,VALID,0,VALID,23.953,VALID,66,VALID,0,
2011-09-10, 00:01:04,VALID,1006.42,VALID,0,INVALID,163.746,VALID,0,VALID,23.9742,VALID,66,VALID,0,
2011-09-10, 00:02:04,VALID,1006.42,VALID,0,INVALID,163.762,VALID,0,VALID,23.9742,VALID,66,VALID,0,
2011-09-10, 00:03:04,VALID,1006.41,VALID,0,INVALID,163.769,VALID,0,VALID,24.015,VALID,66,VALID,0,
2011-09-10, 00:04:04,VALID,1006.41,VALID,0,INVALID,163.762,VALID,0,VALID,24.0539,VALID,66,VALID,0,
2011-09-10, 00:05:04,VALID,1006.39,VALID,0,INVALID,163.762,VALID,0,VALID,24.0326,VALID,66,VALID,0,
2011-09-10, 00:06:04,VALID,1006.38,VALID,0,INVALID,163.731,VALID,0,VALID,24.0521,VALID,66,VALID,0,
2011-09-10, 00:07:04,VALID,1006.35,VALID,0,INVALID,163.777,VALID,0,VALID,24.0716,VALID,66,VALID,0,
2011-09-10, 00:08:04,VALID,1006.36,VALID,0,INVALID,163.769,VALID,0,VALID,24.0716,VALID,66,VALID,0,
2011-09-10, 00:09:04,VALID,1006.32,VALID,0,INVALID,163.769,VALID,0,VALID,24.0716,VALID,66,VALID,0,
2011-09-10, 00:10:04,VALID,1006.29,VALID,0,INVALID,163.769,VALID,0,VALID,24.091,VALID,65,VALID,0,
2011-09-10, 00:11:04,VALID,1006.29,VALID,0,INVALID,163.746,VALID,0,VALID,24.091,VALID,64,VALID,0,
2011-09-10, 00:12:04,VALID,1006.27,VALID,0,INVALID,163.762,VALID,0,VALID,24.1087,VALID,64,VALID,0,
2011-09-10, 00:13:04,VALID,1006.25,VALID,0,INVALID,163.769,VALID,0,VALID,24.1494,VALID,64,VALID,0,
2011-09-10, 00:14:04,VALID,1006.23,VALID,0,INVALID,163.754,VALID,0,VALID,24.1494,VALID,64,VALID,0,
2011-09-10, 00:15:04,VALID,1006.25,VALID,0,INVALID,163.762,VALID,0,VALID,24.1707,VALID,64,VALID,0,
2011-09-10, 00:16:04,VALID,1006.22,VALID,0,INVALID,163.777,VALID,0,VALID,24.13,VALID,64,VALID,0,
2011-09-10, 00:17:04,VALID,1006.2,VALID,0,INVALID,163.762,VALID,0,VALID,24.13,VALID,64,VALID,0,
2011-09-10, 00:18:04,VALID,1006.2,VALID,0,INVALID,163.739,VALID,0,VALID,24.1105,VALID,64,VALID,0,
2011-09-10, 00:19:04,VALID,1006.18,VALID,0,INVALID,163.762,VALID,0,VALID,24.1513,VALID,64,VALID,0,
2011-09-10, 00:20:04,VALID,1006.16,VALID,0,INVALID,163.754,VALID,0,VALID,24.1318,VALID,64,VALID,0,
2011-09-10, 00:21:04,VALID,1006.17,VALID,0,INVALID,163.739,VALID,0,VALID,24.13,VALID,64,VALID,0,
2011-09-10, 00:22:04,VALID,1006.14,VALID,0,INVALID,163.746,VALID,0,VALID,24.1513,VALID,64,VALID,0,
2011-09-10, 00:23:04,VALID,1006.13,VALID,0,INVALID,163.746,VALID,0,VALID,24.1105,VALID,64,VALID,0,
2011-09-10, 00:24:04,VALID,1006.09,VALID,0,INVALID,163.746,VALID,0,VALID,24.1105,VALID,64,VALID,0,
2011-09-10, 00:25:04,VALID,1006.08,VALID,0,INVALID,163.754,VALID,0,VALID,24.1318,VALID,64,VALID,0,
2011-09-10, 00:26:04,VALID,1006.1,VALID,0,INVALID,163.777,VALID,0,VALID,24.1318,VALID,64,VALID,0,
2011-09-10, 00:27:04,VALID,1006.08,VALID,0,INVALID,163.769,VALID,0,VALID,24.1123,VALID,64,VALID,0,
2011-09-10, 00:28:04,VALID,1006.09,VALID,0,INVALID,163.754,VALID,0,VALID,24.1123,VALID,64,VALID,0,
2011-09-10, 00:29:04,VALID,1006.06,VALID,0,INVALID,163.762,VALID,0,VALID,24.1105,VALID,64,VALID,0,
2011-09-10, 00:30:04,VALID,1006.09,VALID,0,INVALID,163.777,VALID,0,VALID,24.0929,VALID,64,VALID,0,
2011-09-10, 00:31:04,VALID,1006.09,VALID,0,INVALID,163.746,VALID,0,VALID,24.091,VALID,64,VALID,0,
2011-09-10, 00:32:04,VALID,1006.12,VALID,0,INVALID,163.762,VALID,0,VALID,24.0521,VALID,64,VALID,0,
2011-09-10, 00:33:04,VALID,1006.09,VALID,0,INVALID,163.777,VALID,0,VALID,24.0114,VALID,43,VALID,0,
2011-09-10, 00:34:04,VALID,1006.09,VALID,0,INVALID,163.731,VALID,0,VALID,24.0326,VALID,43,VALID,0,
2011-09-10, 00:35:04,VALID,1006.07,VALID,0,INVALID,163.762,VALID,0,VALID,24.0697,VALID,43,VALID,0,
2011-09-10, 00:36:04,VALID,1006.04,VALID,0,INVALID,163.746,VALID,0,VALID,24.13,VALID,43,VALID,0,
2011-09-10, 00:37:04,VALID,1006.06,VALID,0,INVALID,163.746,VALID,0,VALID,24.13,VALID,43,VALID,0,
2011-09-10, 00:38:04,VALID,1006.1,VALID,0,INVALID,163.762,VALID,0,VALID,24.13,VALID,43,VALID,0,
2011-09-10, 00:39:04,VALID,1006.08,VALID,0,INVALID,163.746,VALID,0.100563,VALID,24.1281,VALID,43,VALID,0,
2011-09-10, 00:40:04,VALID,1006.12,VALID,0,INVALID,163.762,VALID,0,VALID,24.1476,VALID,43,VALID,0,
2011-09-10, 00:41:04,VALID,1006.08,VALID,0,INVALID,163.723,VALID,0,VALID,24.1476,VALID,43,VALID,0,
2011-09-10, 00:42:04,VALID,1006.08,VALID,0,INVALID,163.762,VALID,0,VALID,24.1494,VALID,43,VALID,0,
2011-09-10, 00:43:04,VALID,1006.05,VALID,0,INVALID,163.716,VALID,0.100563,VALID,24.1281,VALID,43,VALID,0,
2011-09-10, 00:44:04,VALID,1006.03,VALID,0,INVALID,163.746,VALID,0,VALID,24.1281,VALID,43,VALID,0,
2011-09-10, 00:45:04,VALID,1005.98,VALID,0,INVALID,163.746,VALID,0,VALID,24.1105,VALID,43,VALID,0,
2011-09-10, 00:46:04,VALID,1005.97,VALID,0,INVALID,163.762,VALID,0,VALID,24.1123,VALID,43,VALID,0,
2011-09-10, 00:47:04,VALID,1005.95,VALID,0,INVALID,163.762,VALID,0,VALID,24.091,VALID,38,VALID,0,
2011-09-10, 00:48:04,VALID,1005.94,VALID,0,INVALID,163.731,VALID,0,VALID,24.0716,VALID,25,VALID,0,
2011-09-10, 00:49:04,VALID,1005.93,VALID,0,INVALID,163.754,VALID,0,VALID,24.0929,VALID,25,VALID,0,
2011-09-10, 00:50:04,VALID,1005.91,VALID,0,INVALID,163.731,VALID,0,VALID,24.0734,VALID,25,VALID,0,
2011-09-10, 00:51:04,VALID,1005.88,VALID,0,INVALID,163.746,VALID,0,VALID,24.0326,VALID,25,VALID,0,
2011-09-10, 00:52:04,VALID,1005.87,VALID,0,INVALID,163.739,VALID,0,VALID,24.0345,VALID,25,VALID,0,
2011-09-10, 00:53:04,VALID,1005.87,VALID,0,INVALID,163.754,VALID,0,VALID,23.9937,VALID,25,VALID,0,
2011-09-10, 00:54:04,VALID,1005.89,VALID,0,INVALID,163.754,VALID,0,VALID,23.9742,VALID,25,VALID,0,
2011-09-10, 00:55:04,VALID,1005.87,VALID,0,INVALID,163.784,VALID,0,VALID,23.9548,VALID,25,VALID,0,
2011-09-10, 00:56:04,VALID,1005.83,VALID,0,INVALID,163.784,VALID,0,VALID,23.9159,VALID,25,VALID,0,
2011-09-10, 00:57:04,VALID,1005.81,VALID,0,INVALID,163.762,VALID,0,VALID,23.9159,VALID,25,VALID,0,
2011-09-10, 00:58:04,VALID,1005.82,VALID,0,INVALID,163.739,VALID,0,VALID,23.8556,VALID,25,VALID,0,
2011-09-10, 00:59:04,VALID,1005.81,VALID,0,INVALID,163.777,VALID,0,VALID,23.838,VALID,25,VALID,0,
2011-09-10, 01:00:04,VALID,1005.82,VALID,0,INVALID,163.769,VALID,0,VALID,23.8185,VALID,25,VALID,0,
2011-09-10, 01:01:04,VALID,1005.78,VALID,0,INVALID,163.769,VALID,0,VALID,23.8185,VALID,25,VALID,0,
2011-09-10, 01:02:04,VALID,1005.77,VALID,0,INVALID,163.792,VALID,0,VALID,23.8203,VALID,25,VALID,0,
2011-09-10, 01:03:04,VALID,1005.75,VALID,0,INVALID,163.784,VALID,0,VALID,23.8009,VALID,25,VALID,0,
2011-09-10, 01:04:04,VALID,1005.72,VALID,0,INVALID,163.792,VALID,0,VALID,23.7601,VALID,25,VALID,0,
2011-09-10, 01:05:04,VALID,1005.71,VALID,0,INVALID,163.792,VALID,0,VALID,23.7619,VALID,25,VALID,0,
2011-09-10, 01:06:04,VALID,1005.71,VALID,0,INVALID,163.792,VALID,0,VALID,23.7407,VALID,25,VALID,0,
2011-09-10, 01:07:04,VALID,1005.74,VALID,0,INVALID,163.777,VALID,0,VALID,23.7619,VALID,25,VALID,0,
2011-09-10, 01:08:04,VALID,1005.71,VALID,0,INVALID,163.777,VALID,0,VALID,23.7407,VALID,25,VALID,0,
2011-09-10, 01:09:04,VALID,1005.7,VALID,0,INVALID,163.784,VALID,0,VALID,23.8009,VALID,25,VALID,0,
2011-09-10, 01:10:04,VALID,1005.69,VALID,0,INVALID,163.762,VALID,0,VALID,23.8009,VALID,25,VALID,0,
2011-09-10, 01:11:04,VALID,1005.66,VALID,0,INVALID,163.784,VALID,0,VALID,23.7796,VALID,25,VALID,0,
2011-09-10, 01:12:04,VALID,1005.67,VALID,0,INVALID,163.769,VALID,0,VALID,23.7991,VALID,25,VALID,0,
2011-09-10, 01:13:04,VALID,1005.69,VALID,0,INVALID,163.8,VALID,0,VALID,23.7991,VALID,25,VALID,0,
2011-09-10, 01:14:04,VALID,1005.62,VALID,0,INVALID,163.807,VALID,0,VALID,23.8185,VALID,25,VALID,0,
2011-09-10, 01:15:04,VALID,1005.57,VALID,0,INVALID,163.769,VALID,0,VALID,23.8185,VALID,25,VALID,0,
2011-09-10, 01:16:04,VALID,1005.52,VALID,0,INVALID,163.792,VALID,0,VALID,23.8398,VALID,20,VALID,0,
2011-09-10, 01:17:04,VALID,1005.47,VALID,0,INVALID,163.807,VALID,0,VALID,23.8575,VALID,20,VALID,0,
2011-09-10, 01:18:04,VALID,1005.46,VALID,0,INVALID,163.777,VALID,0,VALID,23.8769,VALID,20,VALID,0,
2011-09-10, 01:19:04,VALID,1005.47,VALID,0,INVALID,163.746,VALID,0,VALID,23.9159,VALID,353,VALID,0,
2011-09-10, 01:20:04,VALID,1005.47,VALID,0,INVALID,163.754,VALID,0,VALID,23.9159,VALID,344,VALID,0,
2011-09-10, 01:21:04,VALID,1005.5,VALID,0,INVALID,163.762,VALID,0,VALID,23.9761,VALID,344,VALID,0,
2011-09-10, 01:22:04,VALID,1005.47,VALID,0,INVALID,163.777,VALID,0,VALID,23.9548,VALID,344,VALID,0,
2011-09-10, 01:23:04,VALID,1005.44,VALID,0,INVALID,163.754,VALID,0,VALID,23.9548,VALID,344,VALID,0,
2011-09-10, 01:24:04,VALID,1005.41,VALID,0,INVALID,163.762,VALID,0,VALID,23.9548,VALID,344,VALID,0,
2011-09-10, 01:25:04,VALID,1005.44,VALID,0,INVALID,163.784,VALID,0,VALID,23.9548,VALID,341,VALID,0,
2011-09-10, 01:26:04,VALID,1005.46,VALID,0,INVALID,163.754,VALID,0,VALID,23.9742,VALID,273,VALID,0,
2011-09-10, 01:27:04,VALID,1005.45,VALID,0,INVALID,163.762,VALID,0,VALID,24.0132,VALID,277,VALID,0,
2011-09-10, 01:28:04,VALID,1005.45,VALID,0,INVALID,163.762,VALID,0,VALID,24.0132,VALID,349,VALID,0,
2011-09-10, 01:29:04,VALID,1005.5,VALID,0,INVALID,163.784,VALID,0,VALID,24.0326,VALID,347,VALID,0,
2011-09-10, 01:30:04,VALID,1005.51,VALID,0,INVALID,163.762,VALID,0,VALID,24.0326,VALID,347,VALID,0,
2011-09-10, 01:31:04,VALID,1005.52,VALID,0,INVALID,163.769,VALID,0,VALID,24.0326,VALID,2,VALID,0,
2011-09-10, 01:32:04,VALID,1005.52,VALID,0,INVALID,163.784,VALID,0,VALID,24.0539,VALID,2,VALID,0,
2011-09-10, 01:33:04,VALID,1005.51,VALID,0,INVALID,163.746,VALID,0,VALID,23.9937,VALID,2,VALID,0,
2011-09-10, 01:34:04,VALID,1005.52,VALID,0,INVALID,163.746,VALID,0,VALID,24.015,VALID,2,VALID,0,
2011-09-10, 01:35:04,VALID,1005.5,VALID,0,INVALID,163.754,VALID,0,VALID,24.015,VALID,2,VALID,0,
2011-09-10, 01:36:04,VALID,1005.49,VALID,0,INVALID,163.762,VALID,0,VALID,23.9742,VALID,2,VALID,0,
2011-09-10, 01:37:04,VALID,1005.47,VALID,0,INVALID,163.777,VALID,0,VALID,23.9973,VALID,2,VALID,0,
2011-09-10, 01:38:04,VALID,1005.46,VALID,0,INVALID,163.769,VALID,0,VALID,23.9566,VALID,2,VALID,0,
2011-09-10, 01:39:04,VALID,1005.43,VALID,0,INVALID,163.769,VALID,0,VALID,23.9761,VALID,2,VALID,0,
2011-09-10, 01:40:04,VALID,1005.43,VALID,0,INVALID,163.762,VALID,0,VALID,23.9566,VALID,2,VALID,0,
2011-09-10, 01:41:04,VALID,1005.43,VALID,0,INVALID,163.792,VALID,0,VALID,23.9548,VALID,2,VALID,0,
2011-09-10, 01:42:04,VALID,1005.43,VALID,0,INVALID,163.784,VALID,0,VALID,23.9353,VALID,2,VALID,0,
2011-09-10, 01:43:04,VALID,1005.43,VALID,0,INVALID,163.762,VALID,0,VALID,23.9353,VALID,2,VALID,0,
2011-09-10, 01:44:04,VALID,1005.43,VALID,0,INVALID,163.769,VALID,0,VALID,23.9761,VALID,2,VALID,0,
2011-09-10, 01:45:04,VALID,1005.46,VALID,0,INVALID,163.777,VALID,0,VALID,23.9955,VALID,2,VALID,0,
2011-09-10, 01:46:04,VALID,1005.45,VALID,0,INVALID,163.769,VALID,0,VALID,23.9566,VALID,58,VALID,0,
2011-09-10, 01:47:04,VALID,1005.45,VALID,0,INVALID,163.762,VALID,0,VALID,23.9548,VALID,58,VALID,0,
2011-09-10, 01:48:04,VALID,1005.44,VALID,0,INVALID,163.769,VALID,0,VALID,23.9159,VALID,57,VALID,0,
2011-09-10, 01:49:04,VALID,1005.42,VALID,0,INVALID,163.792,VALID,0,VALID,23.9353,VALID,57,VALID,0,
2011-09-10, 01:50:04,VALID,1005.4,VALID,0,INVALID,163.769,VALID,0,VALID,23.9159,VALID,42,VALID,0,
2011-09-10, 01:51:04,VALID,1005.4,VALID,0,INVALID,163.754,VALID,0,VALID,23.9159,VALID,67,VALID,0,
2011-09-10, 01:52:04,VALID,1005.33,VALID,0,INVALID,163.769,VALID,0,VALID,23.9779,VALID,67,VALID,0,
2011-09-10, 01:53:04,VALID,1005.33,VALID,0,INVALID,163.754,VALID,0,VALID,23.9566,VALID,67,VALID,0,
2011-09-10, 01:54:04,VALID,1005.3,VALID,0,INVALID,163.784,VALID,0,VALID,23.9353,VALID,67,VALID,0,
2011-09-10, 01:55:04,VALID,1005.26,VALID,0,INVALID,163.769,VALID,0,VALID,23.9353,VALID,67,VALID,0,
2011-09-10, 01:56:04,VALID,1005.26,VALID,0,INVALID,163.807,VALID,0,VALID,23.9548,VALID,67,VALID,0,
2011-09-10, 01:57:04,VALID,1005.23,VALID,0,INVALID,163.769,VALID,0,VALID,23.9761,VALID,67,VALID,0,
2011-09-10, 01:58:04,VALID,1005.26,VALID,0,INVALID,163.777,VALID,0,VALID,23.9761,VALID,67,VALID,0,
2011-09-10, 01:59:04,VALID,1005.24,VALID,0,INVALID,163.784,VALID,0,VALID,24.015,VALID,67,VALID,0,
2011-09-10, 02:00:04,VALID,1005.25,VALID,0,INVALID,163.754,VALID,0,VALID,24.0345,VALID,67,VALID,0,
2011-09-10, 02:01:04,VALID,1005.28,VALID,0,INVALID,163.754,VALID,0,VALID,24.0326,VALID,67,VALID,0,
2011-09-10, 02:02:04,VALID,1005.24,VALID,0,INVALID,163.784,VALID,0,VALID,24.0326,VALID,67,VALID,0,
2011-09-10, 02:03:04,VALID,1005.18,VALID,0,INVALID,163.777,VALID,0,VALID,23.9937,VALID,67,VALID,0,
2011-09-10, 02:04:04,VALID,1005.15,VALID,0,INVALID,163.754,VALID,0,VALID,23.9742,VALID,67,VALID,0,
2011-09-10, 02:05:04,VALID,1005.09,VALID,0,INVALID,163.777,VALID,0,VALID,23.9742,VALID,67,VALID,0,
2011-09-10, 02:06:04,VALID,1005.06,VALID,0,INVALID,163.769,VALID,0,VALID,23.9548,VALID,67,VALID,0,
2011-09-10, 02:07:04,VALID,1005.03,VALID,0,INVALID,163.792,VALID,0,VALID,23.9761,VALID,67,VALID,0,
2011-09-10, 02:08:04,VALID,1005.01,VALID,0,INVALID,163.769,VALID,0,VALID,23.9955,VALID,67,VALID,0,
2011-09-10, 02:09:04,VALID,1005.01,VALID,0,INVALID,163.777,VALID,0,VALID,24.0132,VALID,67,VALID,0,
2011-09-10, 02:10:04,VALID,1005.01,VALID,0,INVALID,163.746,VALID,0,VALID,24.0521,VALID,67,VALID,0,
2011-09-10, 02:11:04,VALID,1004.99,VALID,0,INVALID,163.746,VALID,0,VALID,24.0521,VALID,125,VALID,0,
2011-09-10, 02:12:04,VALID,1004.98,VALID,0,INVALID,163.754,VALID,0,VALID,24.0716,VALID,133,VALID,0,
2011-09-10, 02:13:04,VALID,1004.95,VALID,0,INVALID,163.739,VALID,0,VALID,24.0734,VALID,146,VALID,0,
2011-09-10, 02:14:04,VALID,1004.89,VALID,0,INVALID,163.746,VALID,0,VALID,24.0132,VALID,146,VALID,0,
2011-09-10, 02:15:04,VALID,1004.88,VALID,0,INVALID,163.792,VALID,0,VALID,24.0345,VALID,146,VALID,0,
2011-09-10, 02:16:04,VALID,1004.82,VALID,0,INVALID,163.762,VALID,0,VALID,24.015,VALID,146,VALID,0,
2011-09-10, 02:17:04,VALID,1004.81,VALID,0,INVALID,163.762,VALID,0,VALID,24.015,VALID,146,VALID,0,
2011-09-10, 02:18:04,VALID,1004.8,VALID,0,INVALID,163.746,VALID,0,VALID,24.015,VALID,158,VALID,0,
2011-09-10, 02:19:04,VALID,1004.79,VALID,0,INVALID,163.769,VALID,0,VALID,24.015,VALID,162,VALID,0,
2011-09-10, 02:20:04,VALID,1004.75,VALID,0,INVALID,163.777,VALID,0,VALID,23.9742,VALID,162,VALID,0,
2011-09-10, 02:21:04,VALID,1004.74,VALID,0,INVALID,163.777,VALID,0,VALID,23.9742,VALID,162,VALID,0,
2011-09-10, 02:22:04,VALID,1004.73,VALID,0,INVALID,163.769,VALID,0,VALID,23.9742,VALID,162,VALID,0,
2011-09-10, 02:23:04,VALID,1004.76,VALID,0,INVALID,163.777,VALID,0,VALID,23.9742,VALID,162,VALID,0,
2011-09-10, 02:24:04,VALID,1004.75,VALID,0,INVALID,163.754,VALID,0,VALID,23.9955,VALID,162,VALID,0,
2011-09-10, 02:25:04,VALID,1004.78,VALID,0,INVALID,163.777,VALID,0,VALID,23.9955,VALID,162,VALID,0,
2011-09-10, 02:26:04,VALID,1004.81,VALID,0,INVALID,163.777,VALID,0,VALID,23.9937,VALID,162,VALID,0,
2011-09-10, 02:27:04,VALID,1004.8,VALID,0,INVALID,163.746,VALID,0,VALID,24.0132,VALID,162,VALID,0,
2011-09-10, 02:28:04,VALID,1004.79,VALID,0,INVALID,163.784,VALID,0,VALID,24.0539,VALID,162,VALID,0,
2011-09-10, 02:29:04,VALID,1004.82,VALID,0,INVALID,163.746,VALID,0,VALID,24.0539,VALID,162,VALID,0,
2011-09-10, 02:30:04,VALID,1004.83,VALID,0,INVALID,163.762,VALID,0,VALID,24.0132,VALID,162,VALID,0,
2011-09-10, 02:31:04,VALID,1004.8,VALID,0,INVALID,163.777,VALID,0,VALID,24.0132,VALID,162,VALID,0,
2011-09-10, 02:32:04,VALID,1004.83,VALID,0,INVALID,163.762,VALID,0,VALID,24.0132,VALID,162,VALID,0,
2011-09-10, 02:33:04,VALID,1004.8,VALID,0,INVALID,163.739,VALID,0,VALID,23.9937,VALID,162,VALID,0,
2011-09-10, 02:34:04,VALID,1004.76,VALID,0,INVALID,163.807,VALID,0,VALID,24.0345,VALID,162,VALID,0,
2011-09-10, 02:35:04,VALID,1004.78,VALID,0,INVALID,163.769,VALID,0,VALID,24.015,VALID,162,VALID,0,
2011-09-10, 02:36:04,VALID,1004.75,VALID,0,INVALID,163.784,VALID,0,VALID,23.9955,VALID,162,VALID,0,
2011-09-10, 02:37:04,VALID,1004.74,VALID,0,INVALID,163.762,VALID,0,VALID,23.9742,VALID,162,VALID,0,
2011-09-10, 02:38:04,VALID,1004.77,VALID,0,INVALID,163.769,VALID,0,VALID,23.9742,VALID,162,VALID,0,
2011-09-10, 02:39:04,VALID,1004.74,VALID,0,INVALID,163.754,VALID,0,VALID,23.9955,VALID,162,VALID,0,
2011-09-10, 02:40:04,VALID,1004.71,VALID,0,INVALID,163.762,VALID,0,VALID,23.9761,VALID,162,VALID,0,
2011-09-10, 02:41:04,VALID,1004.73,VALID,0,INVALID,163.762,VALID,0,VALID,23.9548,VALID,162,VALID,0,
2011-09-10, 02:42:04,VALID,1004.74,VALID,0,INVALID,163.784,VALID,0,VALID,23.9761,VALID,162,VALID,0,
2011-09-10, 02:43:04,VALID,1004.76,VALID,0,INVALID,163.784,VALID,0,VALID,23.9937,VALID,162,VALID,0,
2011-09-10, 02:44:04,VALID,1004.73,VALID,0,INVALID,163.777,VALID,0,VALID,23.9742,VALID,162,VALID,0,
2011-09-10, 02:45:04,VALID,1004.74,VALID,0,INVALID,163.784,VALID,0,VALID,23.9742,VALID,162,VALID,0,
2011-09-10, 02:46:04,VALID,1004.71,VALID,0,INVALID,163.754,VALID,0,VALID,23.9955,VALID,162,VALID,0,
2011-09-10, 02:47:04,VALID,1004.71,VALID,0,INVALID,163.746,VALID,0,VALID,23.9548,VALID,162,VALID,0,
2011-09-10, 02:48:04,VALID,1004.67,VALID,0,INVALID,163.792,VALID,0,VALID,23.9742,VALID,162,VALID,0,
2011-09-10, 02:49:04,VALID,1004.65,VALID,0,INVALID,163.777,VALID,0,VALID,23.9548,VALID,119,VALID,0,
2011-09-10, 02:50:04,VALID,1004.66,VALID,0,INVALID,163.777,VALID,0,VALID,23.9548,VALID,348,VALID,0,
2011-09-10, 02:51:04,VALID,1004.65,VALID,0,INVALID,163.769,VALID,0,VALID,23.9548,VALID,348,VALID,0,
2011-09-10, 02:52:04,VALID,1004.6,VALID,0,INVALID,163.777,VALID,0,VALID,23.9566,VALID,348,VALID,0,
2011-09-10, 02:53:04,VALID,1004.58,VALID,0,INVALID,163.769,VALID,0,VALID,23.9371,VALID,352,VALID,0,
2011-09-10, 02:54:04,VALID,1004.6,VALID,0,INVALID,163.769,VALID,0,VALID,23.8964,VALID,352,VALID,0,
2011-09-10, 02:55:04,VALID,1004.6,VALID,0,INVALID,163.754,VALID,0,VALID,23.8982,VALID,352,VALID,0,
2011-09-10, 02:56:04,VALID,1004.63,VALID,0,INVALID,163.792,VALID,0,VALID,23.8982,VALID,352,VALID,0,
2011-09-10, 02:57:04,VALID,1004.64,VALID,0,INVALID,163.762,VALID,0,VALID,23.8769,VALID,359,VALID,0,
2011-09-10, 02:58:04,VALID,1004.62,VALID,0,INVALID,163.792,VALID,0,VALID,23.8964,VALID,359,VALID,0,
2011-09-10, 02:59:04,VALID,1004.6,VALID,0,INVALID,163.777,VALID,0,VALID,23.9177,VALID,359,VALID,0,
2011-09-10, 03:00:04,VALID,1004.58,VALID,0,INVALID,163.777,VALID,0,VALID,23.8964,VALID,359,VALID,0,
2011-09-10, 03:01:04,VALID,1004.55,VALID,0,INVALID,163.784,VALID,0,VALID,23.9177,VALID,359,VALID,0,
2011-09-10, 03:02:04,VALID,1004.55,VALID,0,INVALID,163.784,VALID,0,VALID,23.8964,VALID,359,VALID,0,
2011-09-10, 03:03:04,VALID,1004.55,VALID,0,INVALID,163.769,VALID,0,VALID,23.8964,VALID,359,VALID,0,
2011-09-10, 03:04:04,VALID,1004.63,VALID,0,INVALID,163.777,VALID,0,VALID,23.9177,VALID,359,VALID,0,
2011-09-10, 03:05:04,VALID,1004.62,VALID,0,INVALID,163.792,VALID,0,VALID,23.9177,VALID,359,VALID,0,
2011-09-10, 03:06:04,VALID,1004.62,VALID,0,INVALID,163.762,VALID,0,VALID,23.8769,VALID,359,VALID,0,
2011-09-10, 03:07:04,VALID,1004.65,VALID,0,INVALID,163.769,VALID,0,VALID,23.8769,VALID,359,VALID,0,
2011-09-10, 03:08:04,VALID,1004.67,VALID,0,INVALID,163.762,VALID,0,VALID,23.8982,VALID,359,VALID,0,
2011-09-10, 03:09:04,VALID,1004.68,VALID,0,INVALID,163.769,VALID,0,VALID,23.8964,VALID,359,VALID,0,
2011-09-10, 03:10:04,VALID,1004.66,VALID,0,INVALID,163.777,VALID,0,VALID,23.8964,VALID,359,VALID,0,
2011-09-10, 03:11:04,VALID,1004.71,VALID,0,INVALID,163.762,VALID,0,VALID,23.9177,VALID,359,VALID,0,
2011-09-10, 03:12:04,VALID,1004.71,VALID,0,INVALID,163.777,VALID,0,VALID,23.9177,VALID,359,VALID,0,
2011-09-10, 03:13:04,VALID,1004.71,VALID,0,INVALID,163.762,VALID,0,VALID,23.8964,VALID,359,VALID,0,
2011-09-10, 03:14:04,VALID,1004.7,VALID,0,INVALID,163.823,VALID,0,VALID,23.8769,VALID,359,VALID,0,
2011-09-10, 03:15:04,VALID,1004.7,VALID,0,INVALID,163.792,VALID,0,VALID,23.8787,VALID,359,VALID,0,
2011-09-10, 03:16:04,VALID,1004.67,VALID,0,INVALID,163.777,VALID,0,VALID,23.8769,VALID,359,VALID,0,
2011-09-10, 03:17:04,VALID,1004.67,VALID,0,INVALID,163.777,VALID,0,VALID,23.8769,VALID,359,VALID,0,
2011-09-10, 03:18:04,VALID,1004.69,VALID,0,INVALID,163.8,VALID,0,VALID,23.8575,VALID,359,VALID,0,
2011-09-10, 03:19:04,VALID,1004.66,VALID,0,INVALID,163.777,VALID,0,VALID,23.8575,VALID,359,VALID,0,
2011-09-10, 03:20:04,VALID,1004.64,VALID,0,INVALID,163.762,VALID,0,VALID,23.8575,VALID,359,VALID,0,
2011-09-10, 03:21:04,VALID,1004.64,VALID,0,INVALID,163.784,VALID,0,VALID,23.8769,VALID,359,VALID,0,
2011-09-10, 03:22:04,VALID,1004.63,VALID,0,INVALID,163.754,VALID,0,VALID,23.8964,VALID,359,VALID,0,
2011-09-10, 03:23:04,VALID,1004.61,VALID,0,INVALID,163.769,VALID,0,VALID,23.8769,VALID,359,VALID,0,
2011-09-10, 03:24:04,VALID,1004.65,VALID,0,INVALID,163.777,VALID,0,VALID,23.8964,VALID,359,VALID,0,
2011-09-10, 03:25:04,VALID,1004.68,VALID,0,INVALID,163.792,VALID,0,VALID,23.9177,VALID,359,VALID,0,
2011-09-10, 03:26:04,VALID,1004.67,VALID,0,INVALID,163.784,VALID,0,VALID,23.9177,VALID,359,VALID,0,
2011-09-10, 03:27:04,VALID,1004.67,VALID,0,INVALID,163.784,VALID,0,VALID,23.8964,VALID,359,VALID,0,
2011-09-10, 03:28:04,VALID,1004.66,VALID,0,INVALID,163.769,VALID,0,VALID,23.9177,VALID,359,VALID,0,
2011-09-10, 03:29:04,VALID,1004.65,VALID,0,INVALID,163.784,VALID,0,VALID,23.8751,VALID,359,VALID,0,
2011-09-10, 03:30:04,VALID,1004.66,VALID,0,INVALID,163.762,VALID,0,VALID,23.8964,VALID,359,VALID,0,
2011-09-10, 03:31:04,VALID,1004.69,VALID,0,INVALID,163.784,VALID,0.100563,VALID,23.8946,VALID,359,VALID,0,
2011-09-10, 03:32:04,VALID,1004.7,VALID,0,INVALID,163.754,VALID,0.100563,VALID,23.8946,VALID,359,VALID,0,
2011-09-10, 03:33:04,VALID,1004.74,VALID,0,INVALID,163.769,VALID,0,VALID,23.9159,VALID,359,VALID,0,
2011-09-10, 03:34:04,VALID,1004.77,VALID,0,INVALID,163.777,VALID,0.100563,VALID,23.9353,VALID,359,VALID,0,
2011-09-10, 03:35:04,VALID,1004.81,VALID,0,INVALID,163.784,VALID,0,VALID,23.9548,VALID,359,VALID,0,
2011-09-10, 03:36:04,VALID,1004.8,VALID,0,INVALID,163.762,VALID,0,VALID,23.9335,VALID,359,VALID,0,
2011-09-10, 03:37:04,VALID,1004.81,VALID,0,INVALID,163.769,VALID,0,VALID,23.9548,VALID,359,VALID,0,
2011-09-10, 03:38:04,VALID,1004.8,VALID,0,INVALID,163.784,VALID,0,VALID,23.9159,VALID,359,VALID,0,
2011-09-10, 03:39:04,VALID,1004.83,VALID,0,INVALID,163.784,VALID,0.100563,VALID,23.8964,VALID,359,VALID,0,
2011-09-10, 03:40:04,VALID,1004.83,VALID,0,INVALID,163.769,VALID,0,VALID,23.8964,VALID,359,VALID,0,
2011-09-10, 03:41:04,VALID,1004.82,VALID,0,INVALID,163.823,VALID,0.100563,VALID,23.8964,VALID,359,VALID,0,
2011-09-10, 03:42:04,VALID,1004.83,VALID,0,INVALID,163.784,VALID,0,VALID,23.8556,VALID,359,VALID,0,
2011-09-10, 03:43:04,VALID,1004.84,VALID,0,INVALID,163.762,VALID,0,VALID,23.8362,VALID,359,VALID,0,
2011-09-10, 03:44:04,VALID,1004.85,VALID,0,INVALID,163.762,VALID,0.100563,VALID,23.8167,VALID,359,VALID,0,
2011-09-10, 03:45:04,VALID,1004.84,VALID,0,INVALID,163.792,VALID,0,VALID,23.7991,VALID,359,VALID,0,
2011-09-10, 03:46:04,VALID,1004.81,VALID,0,INVALID,163.777,VALID,0,VALID,23.7796,VALID,359,VALID,0,
2011-09-10, 03:47:04,VALID,1004.77,VALID,0,INVALID,163.807,VALID,0,VALID,23.7796,VALID,359,VALID,0,
2011-09-10, 03:48:04,VALID,1004.77,VALID,0,INVALID,163.777,VALID,0.100563,VALID,23.7991,VALID,359,VALID,0,
2011-09-10, 03:49:04,VALID,1004.75,VALID,0,INVALID,163.784,VALID,0.100563,VALID,23.7991,VALID,359,VALID,0,
2011-09-10, 03:50:04,VALID,1004.76,VALID,0,INVALID,163.8,VALID,0,VALID,23.7973,VALID,359,VALID,0,
2011-09-10, 03:51:04,VALID,1004.73,VALID,0,INVALID,163.792,VALID,0,VALID,23.8185,VALID,1,VALID,0,
2011-09-10, 03:52:04,VALID,1004.74,VALID,0,INVALID,163.769,VALID,0,VALID,23.838,VALID,5,VALID,0,
2011-09-10, 03:53:04,VALID,1004.77,VALID,0,INVALID,163.8,VALID,0.100563,VALID,23.8575,VALID,13,VALID,0,
2011-09-10, 03:54:04,VALID,1004.76,VALID,0,INVALID,163.784,VALID,0,VALID,23.8362,VALID,13,VALID,0,
2011-09-10, 03:55:04,VALID,1004.79,VALID,0,INVALID,163.8,VALID,0,VALID,23.8362,VALID,13,VALID,0,